User: anonymous   Login
Location: Unspecified
(0.0000°N, 0.0000°E)
Time: 09:27:05
(UTC+00:00)
Language:

NIUSAT - Orbit

View from above orbital plane
View from above orbital plane
View from above satellite
View from above satellite

Ground track
Ground track

The orbit data is extracted from the following two-line orbital elements,

1 42766U 17036B   18267.70500058 +.00001069 +00000-0 +51753-4 0  9992
2 42766 097.3910 324.9634 0017568 077.7532 282.5670 15.20582271069654
Epoch (UTC): 24 September 2018 16:55:12
Eccentricity: 0.0017568
inclination: 97.3910°
perigee height: 492 km
apogee height: 516 km
right ascension of ascending node: 324.9634°
argument of perigee: 77.7532°
revolutions per day: 15.20582271
mean anomaly at epoch: 282.5670°
orbit number at epoch: 6965

The dashed part of the orbit path shows where the satellite is in the earth's shadow,  

DLR